Year,Month,Day,Hour,Minute,Value (Times are PST for temperature in C)
2010,02,25,09,21,8.80
2010,02,25,09,22,8.80
2010,02,25,09,23,8.80
2010,02,25,09,24,8.90
2010,02,25,09,25,8.90
2010,02,25,09,26,8.90
2010,02,25,09,27,9.00
2010,02,25,09,28,9.00
2010,02,25,09,29,9.10
2010,02,25,09,30,9.10
2010,02,25,09,31,9.20
2010,02,25,09,32,9.20
2010,02,25,09,33,9.20
2010,02,25,09,34,9.30
2010,02,25,09,35,9.30
2010,02,25,09,36,9.30
2010,02,25,09,37,9.30
2010,02,25,09,38,9.40
2010,02,25,09,39,9.40
2010,02,25,09,40,9.40
2010,02,25,09,41,9.40
2010,02,25,09,42,9.40
2010,02,25,09,43,9.40
2010,02,25,09,44,9.40
2010,02,25,09,45,9.40
2010,02,25,09,46,9.40
2010,02,25,09,47,9.40
2010,02,25,09,48,9.40
2010,02,25,09,49,9.40
2010,02,25,09,50,9.40
2010,02,25,09,51,9.40
2010,02,25,09,52,9.40
2010,02,25,09,53,9.50
2010,02,25,09,54,9.50
2010,02,25,09,55,9.60
2010,02,25,09,56,9.70
2010,02,25,09,57,9.80
2010,02,25,09,58,9.80
2010,02,25,09,59,9.90
2010,02,25,10,00,10.00
2010,02,25,10,01,10.10
2010,02,25,10,02,10.10
2010,02,25,10,03,10.20
2010,02,25,10,04,10.20
2010,02,25,10,05,10.10
2010,02,25,10,06,10.10
2010,02,25,10,07,10.10
2010,02,25,10,08,10.10
2010,02,25,10,09,10.10
2010,02,25,10,10,10.10
2010,02,25,10,11,10.10
2010,02,25,10,12,10.10
2010,02,25,10,13,10.10
2010,02,25,10,14,10.10
2010,02,25,10,15,10.10
2010,02,25,10,16,10.20
2010,02,25,10,17,10.20
2010,02,25,10,18,10.30
2010,02,25,10,19,10.30
2010,02,25,10,20,10.40
2010,02,25,10,21,10.50
2010,02,25,10,22,10.50
2010,02,25,10,23,10.50
2010,02,25,10,24,10.60
2010,02,25,10,25,10.60
2010,02,25,10,26,10.60
2010,02,25,10,27,10.60
2010,02,25,10,28,10.60
2010,02,25,10,29,10.60
2010,02,25,10,30,10.70
2010,02,25,10,31,10.70
2010,02,25,10,32,10.80
2010,02,25,10,33,10.80
2010,02,25,10,34,10.80
2010,02,25,10,35,10.90
2010,02,25,10,36,10.80
2010,02,25,10,37,10.80
2010,02,25,10,38,10.80
2010,02,25,10,39,10.70
2010,02,25,10,40,10.60
2010,02,25,10,41,10.50
2010,02,25,10,42,10.40
2010,02,25,10,43,10.30
2010,02,25,10,44,10.20
2010,02,25,10,45,10.20
2010,02,25,10,46,10.10
2010,02,25,10,47,10.10
2010,02,25,10,48,10.10
2010,02,25,10,49,10.00
2010,02,25,10,50,10.00
2010,02,25,10,51,9.90
2010,02,25,10,52,9.90
2010,02,25,10,53,9.90
2010,02,25,10,54,9.90
2010,02,25,10,55,9.80
2010,02,25,10,56,9.80
2010,02,25,10,57,9.80
2010,02,25,10,58,9.70
2010,02,25,10,59,9.70
2010,02,25,11,00,9.70
2010,02,25,11,01,9.70
2010,02,25,11,02,9.80
2010,02,25,11,03,9.80
2010,02,25,11,04,9.80
2010,02,25,11,05,9.90
2010,02,25,11,06,9.90
2010,02,25,11,07,9.90
2010,02,25,11,08,10.00
2010,02,25,11,09,10.00
2010,02,25,11,10,10.10
2010,02,25,11,11,10.10
2010,02,25,11,12,10.20
2010,02,25,11,13,10.20
2010,02,25,11,14,10.30
2010,02,25,11,15,10.40
2010,02,25,11,16,10.40
2010,02,25,11,17,10.50
2010,02,25,11,18,10.50
2010,02,25,11,19,10.60
2010,02,25,11,20,10.60
2010,02,25,11,21,10.60
2010,02,25,11,22,10.70
2010,02,25,11,23,10.70
2010,02,25,11,24,10.70
2010,02,25,11,25,10.70
2010,02,25,11,26,10.80
2010,02,25,11,27,10.80
2010,02,25,11,28,10.90
2010,02,25,11,29,10.90
2010,02,25,11,30,11.00
2010,02,25,11,31,11.00
2010,02,25,11,32,11.10
2010,02,25,11,33,11.20
2010,02,25,11,34,11.20
2010,02,25,11,35,11.30
2010,02,25,11,36,11.30
2010,02,25,11,37,11.40
2010,02,25,11,38,11.40
2010,02,25,11,39,11.50
2010,02,25,11,40,11.60
2010,02,25,11,41,11.60
2010,02,25,11,42,11.60
2010,02,25,11,43,11.60
2010,02,25,11,44,11.70
2010,02,25,11,45,11.70
2010,02,25,11,46,11.70
2010,02,25,11,47,11.70
2010,02,25,11,48,11.70
2010,02,25,11,49,11.60
2010,02,25,11,50,11.60
2010,02,25,11,51,11.60
2010,02,25,11,52,11.60
2010,02,25,11,53,11.60
2010,02,25,11,54,11.60
2010,02,25,11,55,11.60
2010,02,25,11,56,11.60
2010,02,25,11,57,11.70
2010,02,25,11,58,11.70
2010,02,25,11,59,11.80
2010,02,25,12,00,11.80
2010,02,25,12,01,11.80
2010,02,25,12,02,11.90
2010,02,25,12,03,11.90
2010,02,25,12,04,11.90
2010,02,25,12,05,12.00
2010,02,25,12,06,12.00
2010,02,25,12,07,12.10
2010,02,25,12,08,12.10
2010,02,25,12,09,12.10
2010,02,25,12,10,12.20
2010,02,25,12,11,12.20
2010,02,25,12,12,12.10
2010,02,25,12,13,12.10
2010,02,25,12,14,12.10
2010,02,25,12,15,12.10
2010,02,25,12,16,12.10
2010,02,25,12,17,12.10
2010,02,25,12,18,12.10
2010,02,25,12,19,12.10
2010,02,25,12,20,12.10
2010,02,25,12,21,12.10
2010,02,25,12,22,12.10
2010,02,25,12,23,12.10
2010,02,25,12,24,12.10
2010,02,25,12,25,12.00
2010,02,25,12,26,11.90
2010,02,25,12,27,11.90
2010,02,25,12,28,11.80
2010,02,25,12,29,11.80
2010,02,25,12,30,11.80
2010,02,25,12,31,11.90
2010,02,25,12,32,11.90
2010,02,25,12,33,11.90
2010,02,25,12,34,11.90
2010,02,25,12,35,11.90
2010,02,25,12,36,11.90
2010,02,25,12,37,11.80
2010,02,25,12,38,11.90
2010,02,25,12,39,11.90
2010,02,25,12,40,12.00
2010,02,25,12,41,12.10
2010,02,25,12,42,12.10
2010,02,25,12,43,12.10
2010,02,25,12,44,12.20
2010,02,25,12,45,12.20
2010,02,25,12,46,12.20
2010,02,25,12,47,12.20
2010,02,25,12,48,12.20
2010,02,25,12,49,12.20
2010,02,25,12,50,12.30
2010,02,25,12,51,12.30
2010,02,25,12,52,12.30
2010,02,25,12,53,12.30
2010,02,25,12,54,12.40
2010,02,25,12,55,12.40
2010,02,25,12,56,12.40
2010,02,25,12,57,12.50
2010,02,25,12,58,12.50
2010,02,25,12,59,12.50
2010,02,25,13,00,12.50
2010,02,25,13,01,12.50
2010,02,25,13,02,12.40
2010,02,25,13,03,12.40
2010,02,25,13,04,12.40
2010,02,25,13,05,12.30
2010,02,25,13,06,12.30
2010,02,25,13,07,12.10
2010,02,25,13,08,12.00
2010,02,25,13,09,11.90
2010,02,25,13,10,11.80
2010,02,25,13,11,11.70
2010,02,25,13,12,11.60
2010,02,25,13,13,11.60
2010,02,25,13,14,11.60
2010,02,25,13,15,11.60
2010,02,25,13,16,11.60
2010,02,25,13,17,11.60
2010,02,25,13,18,11.60
2010,02,25,13,19,11.60
2010,02,25,13,20,11.50
2010,02,25,13,21,11.50
2010,02,25,13,22,11.50
2010,02,25,13,23,11.60
2010,02,25,13,24,11.60
2010,02,25,13,25,11.60
2010,02,25,13,26,11.60
2010,02,25,13,27,11.60
2010,02,25,13,28,11.60
2010,02,25,13,29,11.60
2010,02,25,13,30,11.60
2010,02,25,13,31,11.60
2010,02,25,13,32,11.50
2010,02,25,13,33,11.40
2010,02,25,13,34,11.40
2010,02,25,13,35,11.40
2010,02,25,13,36,11.40
2010,02,25,13,37,11.30
2010,02,25,13,38,11.30
2010,02,25,13,39,11.30
2010,02,25,13,40,11.20
2010,02,25,13,41,11.20
2010,02,25,13,42,11.20
2010,02,25,13,43,11.10
2010,02,25,13,44,11.10
2010,02,25,13,45,11.00
2010,02,25,13,46,11.00
2010,02,25,13,47,11.00
2010,02,25,13,48,11.00
2010,02,25,13,49,11.00
2010,02,25,13,50,11.00
2010,02,25,13,51,11.00
2010,02,25,13,52,11.00
2010,02,25,13,53,11.10
2010,02,25,13,54,11.10
2010,02,25,13,55,11.10
2010,02,25,13,56,11.20
2010,02,25,13,57,11.30
2010,02,25,13,58,11.30
2010,02,25,13,59,11.40
2010,02,25,14,00,11.40
2010,02,25,14,01,11.50
2010,02,25,14,02,11.50
2010,02,25,14,03,11.60
2010,02,25,14,04,11.70
2010,02,25,14,05,11.70
2010,02,25,14,06,11.80
2010,02,25,14,07,11.80
2010,02,25,14,08,11.80
2010,02,25,14,09,11.90
2010,02,25,14,10,11.90
2010,02,25,14,11,11.90
2010,02,25,14,12,11.90
2010,02,25,14,13,11.90
2010,02,25,14,14,12.00
2010,02,25,14,15,12.00
2010,02,25,14,16,11.90
2010,02,25,14,17,11.80
2010,02,25,14,18,11.80
2010,02,25,14,19,11.80
2010,02,25,14,20,11.80
2010,02,25,14,21,11.80
2010,02,25,14,22,11.80
2010,02,25,14,23,11.80
2010,02,25,14,24,11.80
2010,02,25,14,25,11.80
2010,02,25,14,26,11.80
2010,02,25,14,27,11.70
2010,02,25,14,28,11.60
2010,02,25,14,29,11.60
2010,02,25,14,30,11.60
2010,02,25,14,31,11.50
2010,02,25,14,32,11.40
2010,02,25,14,33,11.30
2010,02,25,14,34,11.30
2010,02,25,14,35,11.30
2010,02,25,14,36,11.30
2010,02,25,14,37,11.30
2010,02,25,14,38,11.30
2010,02,25,14,39,11.30
2010,02,25,14,40,11.30
2010,02,25,14,41,11.30
2010,02,25,14,42,11.20
2010,02,25,14,43,11.20
2010,02,25,14,44,11.20
2010,02,25,14,45,11.10
2010,02,25,14,46,11.10
2010,02,25,14,47,11.10
2010,02,25,14,48,11.00
2010,02,25,14,49,11.00
2010,02,25,14,50,11.00
2010,02,25,14,51,11.00
2010,02,25,14,52,10.90
2010,02,25,14,53,10.90
2010,02,25,14,54,10.80
2010,02,25,14,55,10.80
2010,02,25,14,56,10.70
2010,02,25,14,57,10.70
2010,02,25,14,58,10.70
2010,02,25,14,59,10.60
2010,02,25,15,00,10.50
2010,02,25,15,01,10.50
2010,02,25,15,02,10.50
2010,02,25,15,03,10.40
2010,02,25,15,04,10.40
2010,02,25,15,05,10.40
2010,02,25,15,06,10.40
2010,02,25,15,07,10.40
2010,02,25,15,08,10.30
2010,02,25,15,09,10.30
2010,02,25,15,10,10.30
2010,02,25,15,11,10.30
2010,02,25,15,12,10.30
2010,02,25,15,13,10.30
2010,02,25,15,14,10.30
2010,02,25,15,15,10.30
2010,02,25,15,16,10.30
2010,02,25,15,17,10.40
2010,02,25,15,18,10.50
2010,02,25,15,19,10.60
2010,02,25,15,20,10.70
2010,02,25,15,21,10.80
2010,02,25,15,22,10.80
2010,02,25,15,23,10.90
2010,02,25,15,24,11.00
2010,02,25,15,25,11.10
2010,02,25,15,26,11.10
2010,02,25,15,27,11.10
2010,02,25,15,28,11.20
2010,02,25,15,29,11.20
2010,02,25,15,30,11.20
2010,02,25,15,31,11.20
2010,02,25,15,32,11.10
2010,02,25,15,33,11.10
2010,02,25,15,34,11.10
2010,02,25,15,35,11.10
2010,02,25,15,36,11.10
2010,02,25,15,37,11.20
2010,02,25,15,38,11.20
2010,02,25,15,39,11.20
2010,02,25,15,40,11.20
2010,02,25,15,41,11.20
2010,02,25,15,42,11.20
2010,02,25,15,43,11.20
2010,02,25,15,44,11.20
2010,02,25,15,45,11.20
2010,02,25,15,46,11.20
2010,02,25,15,47,11.10
2010,02,25,15,48,11.00
2010,02,25,15,49,10.90
2010,02,25,15,50,10.80
2010,02,25,15,51,10.70
2010,02,25,15,52,10.60
2010,02,25,15,53,10.60
2010,02,25,15,54,10.50
2010,02,25,15,55,10.40
2010,02,25,15,56,10.30
2010,02,25,15,57,10.30
2010,02,25,15,58,10.30
2010,02,25,15,59,10.30
2010,02,25,16,00,10.20
2010,02,25,16,01,10.20
2010,02,25,16,02,10.20
2010,02,25,16,03,10.10
2010,02,25,16,04,10.10
2010,02,25,16,05,10.10
2010,02,25,16,06,10.00
2010,02,25,16,07,9.90
2010,02,25,16,08,9.90
2010,02,25,16,09,9.90
2010,02,25,16,10,9.90
2010,02,25,16,11,9.80
2010,02,25,16,12,9.80
2010,02,25,16,13,9.80
2010,02,25,16,14,9.80
2010,02,25,16,15,9.80
2010,02,25,16,16,9.80
2010,02,25,16,17,9.80
2010,02,25,16,18,9.70
2010,02,25,16,19,9.70
2010,02,25,16,20,9.70
2010,02,25,16,21,9.70
2010,02,25,16,22,9.70
2010,02,25,16,23,9.70
2010,02,25,16,24,9.70
2010,02,25,16,25,9.70
2010,02,25,16,26,9.70
2010,02,25,16,27,9.70
2010,02,25,16,28,9.70
